SEASAT 1

Last updated on Wed Nov 05 2025 00:02:14 GMT+0000 (Coordinated Universal Time)

1 10967U 78064A 25308.49575826 .00000442 00000+0 16242-3 0 9999 2 10967 108.0055 222.8152 0002517 259.7804 100.3058 14.45994218488415
UTC large
Height (km)
Speed (km/s)
/
Latitude / Longitude
Inclination (degrees)
Orbital Period (minutes)
Azimuth
Elevation
Range (km)
Doppler Factor

Next 0 passes for location: London (51.5072 / 0.1276)

Sorry there are no passes over London.